Regional Weather Roundup
Issued by NWS

Home | Current Version | Previous Version | Graphics & Text | Print | Product List | Glossary On
Versions: 1 2 3 4 5 6 7 8 9 10 11 12 13 14 15 16 17 18 19 20 21 22 23 24 25 26 27 28 29 30 31 32 33 34 35 36 37 38 39 40 41 42 43 44 45 46 47 48 49 50
000
ASUS43 KOAX 231110
RWRNE

WEATHER ROUNDUP FOR NEBRASKA
NATIONAL WEATHER SERVICE OMAHA NE
600 AM CDT WED APR 23 2014

NOTES: SATELLITE DATA IS BEING USED TO AUGMENT CLOUD COVER ABOVE
       12000 FEET.
       "FAIR" INDICATES FEW OR NO CLOUDS BELOW 12,000 FEET WITH NO
       SIGNIFICANT WEATHER AND/OR OBSTRUCTIONS TO VISIBILITY.

  * THESE STATIONS DO NOT REPORT WEATHER SUCH AS RAIN...SNOW OR FOG.

NEZ001>004-019>022-054>056-231200-
NEBRASKA PANHANDLE

CITY           SKY/WX    TMP DP  RH WIND       PRES   REMARKS
SCOTTSBLUFF    CLOUDY    54  44  69 E8        29.50S
ALLIANCE       CLOUDY    53  45  74 S15       29.50S
CHADRON        CLOUDY    58  47  66 S10       29.46R
KIMBALL        CLOUDY    49  37  62 S8        29.54F
SIDNEY         CLOUDY    52  43  71 S9        29.54F
$$

NEZ057>060-069>072-079>082-231200-
SOUTHWEST NEBRASKA

CITY           SKY/WX    TMP DP  RH WIND       PRES   REMARKS
NORTH PLATTE   CLOUDY    57  37  47 SE15      29.60F
IMPERIAL       MOCLDY    60  43  53 S17       29.55F
LEXINGTON      CLOUDY    55  36  48 SE23G31   29.67F
MCCOOK         CLOUDY    57  43  59 SE8       29.62S
OGALLALA       CLOUDY    52  42  71 E6        29.55F
$$

NEZ005>010-023>029-035>040-094-231200-
NORTH CENTRAL NEBRASKA

CITY           SKY/WX    TMP DP  RH WIND       PRES   REMARKS
VALENTINE      CLOUDY    55  33  43 SE13      29.58F
AINSWORTH      MOCLDY    54  33  44 S23G33    29.58F
BROKEN BOW     MOCLDY    55  35  47 SE17G25   29.67F
O`NEILL        PTCLDY    55  31  40 SE23G37   29.69F
ORD            MOCLDY    52  34  50 SE16G23   29.70F
THEDFORD       CLOUDY    57  34  41 SE21G28   29.59F
$$

NEZ041-046>049-061>064-073>077-083>087-231200-
SOUTH CENTRAL NEBRASKA

CITY           SKY/WX    TMP DP  RH WIND       PRES   REMARKS
GRAND ISLAND   CLOUDY    53  40  61 SE23G32   29.76F
AURORA         LGT RAIN  52  40  62 SE23      29.79F
HASTINGS       CLOUDY    54  38  54 SE18G29   29.76S
HEBRON         LGT RAIN  52  42  68 SE12      29.84F
HOLDREGE       MOCLDY    55  35  46 SE26G37   29.69F
KEARNEY *      CLOUDY    55  37  50 SE25G33   29.72S
YORK           CLOUDY    50  39  66 SE26G33   29.81F
$$

NEZ011>018-030>034-042>045-231200-
NORTHEAST NEBRASKA

CITY           SKY/WX    TMP DP  RH WIND       PRES   REMARKS
NORFOLK        LGT RAIN  52  37  56 SE30G39   29.78F
ALBION         LGT RAIN  53  36  52 SE22G29   29.78S
BLAIR          MOCLDY    53  34  49 SE12G17   29.93R
COLUMBUS *     CLOUDY    54  34  47 SE18G24   29.82F
FREMONT        MOCLDY    54  37  52 SE15G22   29.89F
TEKAMAH        MOCLDY    51  34  52 SE13      29.92F
$$

NEZ050>053-065>068-078-088>093-231200-
SOUTHEAST NEBRASKA

CITY           SKY/WX    TMP DP  RH WIND       PRES   REMARKS
LINCOLN        CLOUDY    57  35  43 SE15G25   29.89F
OMAHA EPPLEY   PTCLDY    54  33  45 SE17      29.92F
BEATRICE       LGT RAIN  55  36  47 SE15G23   29.90R
FALLS CITY     MOCLDY    53  36  52 SE12      29.93S
NEBRASKA CITY  CLOUDY    54  35  49 SE13      29.94S
PLATTSMOUTH    PTCLDY    54  33  46 SE12G17   29.93F
$$

NEZ044-045-051>053-067-231200-
OMAHA AREA

CITY           SKY/WX    TMP DP  RH WIND       PRES   REMARKS
OMAHA EPPLEY   PTCLDY    54  33  45 SE17      29.92F
BLAIR          MOCLDY    53  34  49 SE12G17   29.93R
FREMONT        MOCLDY    54  37  52 SE15G22   29.89F
MILLARD        PTCLDY    54  35  48 E8        29.92S
OFFUTT AFB     PTCLDY    51  36  57 SE9       29.93S
PLATTSMOUTH    PTCLDY    54  33  46 SE12G17   29.93F
WAHOO          CLOUDY    53  33  47 SE13      29.90R
$$



USA.gov is the U.S. government's official web portal to all federal, state and local government web resources and services.